| time (UTC) | temp F | wind direction | speed knots | gust knots | rain 1hr in | rain 24hr in | rain mn in | humidity % | barometer mb |
| 20260504050709 | 62 | 261 | 13.9 | 24.3 | 0.00 | 0.00 | 0.00 | 36 | 1002.5 |
| 20260504050157 | 62 | 261 | 14.8 | 25.2 | 0.00 | 0.00 | 0.00 | 35 | 1002.4 |
| 20260504045553 | 63 | 261 | 13.9 | 25.2 | 0.00 | 0.00 | 0.00 | 35 | 1002.1 |
| 20260504045044 | 64 | 261 | 13.9 | 24.3 | 0.00 | 0.00 | 0.00 | 35 | 1002.0 |
| 20260504044533 | 64 | 261 | 14.8 | 24.3 | 0.00 | 0.00 | 0.00 | 34 | 1001.9 |
| 20260504044024 | 64 | 261 | 11.3 | 20.9 | 0.00 | 0.00 | 0.00 | 32 | 1002.0 |
| 20260504043513 | 65 | 261 | 9.6 | 13.9 | 0.00 | 0.00 | 0.00 | 32 | 1001.7 |
| 20260504043504 | 65 | 261 | 10.4 | 15.6 | 0.00 | 0.00 | 0.00 | 31 | 1001.6 |
| 20260504042453 | 65 | 261 | 11.3 | 17.4 | 0.00 | 0.00 | 0.00 | 31 | 1001.5 |
| 20260504041943 | 65 | 261 | 10.4 | 17.4 | 0.00 | 0.00 | 0.00 | 31 | 1001.5 |
| 20260504041433 | 65 | 261 | 9.6 | 13.9 | 0.00 | 0.00 | 0.00 | 31 | 1001.6 |
| 20260504040931 | 65 | 261 | 9.6 | 13.9 | 0.00 | 0.00 | 0.00 | 30 | 1001.5 |
| 20260504040421 | 65 | 261 | 9.6 | 13.9 | 0.00 | 0.00 | 0.00 | 30 | 1001.5 |
| 20260504040413 | 65 | 261 | 8.7 | 16.5 | 0.00 | 0.00 | 0.00 | 29 | 1001.5 |
| 20260504035401 | 66 | 261 | 10.4 | 16.5 | 0.00 | 0.00 | 0.00 | 29 | 1001.5 |
| 20260504034852 | 66 | 261 | 13.0 | 18.2 | 0.00 | 0.00 | 0.00 | 29 | 1001.4 |
| 20260504034341 | 65 | 261 | 13.0 | 18.2 | 0.00 | 0.00 | 0.00 | 29 | 1001.5 |
| 20260504033831 | 64 | 261 | 10.4 | 16.5 | 0.00 | 0.00 | 0.00 | 30 | 1001.5 |
| 20260504033321 | 62 | 261 | 8.7 | 15.6 | 0.00 | 0.00 | 0.00 | 33 | 1001.5 |
| 20260504032811 | 62 | 261 | 8.7 | 11.3 | 0.00 | 0.00 | 0.00 | 36 | 1001.5 |
| 20260504032303 | 62 | 261 | 9.6 | 20.9 | 0.00 | 0.00 | 0.00 | 35 | 1001.4 |
| 20260504031751 | 63 | 261 | 9.6 | 20.9 | 0.00 | 0.00 | 0.00 | 34 | 1001.4 |
| 20260504031233 | 63 | 261 | 9.6 | 13.0 | 0.00 | 0.00 | 0.00 | 34 | 1001.3 |
| 20260504031216 | 64 | 261 | 9.6 | 13.0 | 0.00 | 0.00 | 0.00 | 33 | 1001.2 |
| 20260504030820 | 63 | 261 | 9.6 | 13.0 | 0.00 | 0.00 | 0.00 | 34 | 1001.2 |
| 20260504025704 | 64 | 261 | 9.6 | 13.0 | 0.00 | 0.00 | 0.00 | 33 | 1001.2 |
| 20260504025154 | 64 | 261 | 9.6 | 13.9 | 0.00 | 0.00 | 0.00 | 33 | 1001.3 |
| 20260504024645 | 64 | 261 | 8.7 | 13.0 | 0.00 | 0.00 | 0.00 | 32 | 1001.4 |
| 20260504024133 | 64 | 261 | 7.8 | 12.2 | 0.00 | 0.00 | 0.00 | 32 | 1001.3 |
| 20260504024124 | 64 | 261 | 7.8 | 11.3 | 0.00 | 0.00 | 0.00 | 32 | 1001.3 |
| 20260504023114 | 64 | 261 | 7.8 | 10.4 | 0.00 | 0.00 | 0.00 | 32 | 1001.2 |
| 20260504023104 | 65 | 261 | 7.8 | 10.4 | 0.00 | 0.00 | 0.00 | 32 | 1001.2 |
| 20260504022054 | 65 | 261 | 7.0 | 9.6 | 0.00 | 0.00 | 0.00 | 32 | 1001.3 |
| 20260504022045 | 65 | 261 | 6.1 | 9.6 | 0.00 | 0.00 | 0.00 | 32 | 1001.3 |
| 20260504021033 | 65 | 261 | 6.1 | 8.7 | 0.00 | 0.00 | 0.00 | 31 | 1001.3 |
| 20260504020524 | 66 | 261 | 6.1 | 8.7 | 0.00 | 0.00 | 0.00 | 30 | 1001.3 |
| 20260504020013 | 66 | 261 | 6.1 | 8.7 | 0.00 | 0.00 | 0.00 | 29 | 1001.4 |
| 20260504015503 | 67 | 261 | 6.1 | 8.7 | 0.00 | 0.00 | 0.00 | 28 | 1001.5 |
| 20260504014953 | 67 | 261 | 6.1 | 12.2 | 0.00 | 0.00 | 0.00 | 27 | 1001.5 |
| 20260504014444 | 68 | 261 | 7.0 | 12.2 | 0.00 | 0.00 | 0.00 | 26 | 1001.6 |
| 20260504013933 | 69 | 261 | 7.8 | 13.9 | 0.00 | 0.00 | 0.00 | 26 | 1001.9 |
| 20260504013424 | 69 | 261 | 8.7 | 13.9 | 0.00 | 0.00 | 0.00 | 25 | 1001.9 |
| 20260504012913 | 69 | 261 | 9.6 | 13.0 | 0.00 | 0.00 | 0.00 | 24 | 1002.0 |
| 20260504012403 | 70 | 261 | 9.6 | 13.0 | 0.00 | 0.00 | 0.00 | 23 | 1002.0 |
| 20260504011853 | 70 | 261 | 10.4 | 13.9 | 0.00 | 0.00 | 0.00 | 22 | 1002.1 |
| 20260504011344 | 70 | 261 | 10.4 | 13.9 | 0.00 | 0.00 | 0.00 | 22 | 1002.1 |
| 20260504011334 | 71 | 261 | 11.3 | 17.4 | 0.00 | 0.00 | 0.00 | 21 | 1002.2 |
| 20260504010324 | 71 | 261 | 12.2 | 19.1 | 0.00 | 0.00 | 0.00 | 21 | 1002.2 |
| 20260504005811 | 71 | 261 | 13.0 | 20.0 | 0.00 | 0.00 | 0.00 | 20 | 1002.3 |
| 20260504005304 | 72 | 261 | 13.0 | 20.0 | 0.00 | 0.00 | 0.00 | 19 | 1002.4 |
| 20260504004751 | 72 | 261 | 11.3 | 17.4 | 0.00 | 0.00 | 0.00 | 19 | 1002.4 |
| 20260504004241 | 72 | 261 | 12.2 | 20.9 | 0.00 | 0.00 | 0.00 | 18 | 1002.5 |
| 20260504003731 | 72 | 261 | 13.0 | 20.9 | 0.00 | 0.00 | 0.00 | 18 | 1002.5 |
| 20260504003222 | 72 | 261 | 13.9 | 20.0 | 0.00 | 0.00 | 0.00 | 17 | 1002.6 |
| 20260504002712 | 72 | 261 | 14.8 | 23.5 | 0.00 | 0.00 | 0.00 | 17 | 1002.6 |
| 20260504002202 | 72 | 261 | 14.8 | 23.5 | 0.00 | 0.00 | 0.00 | 18 | 1002.6 |
| 20260504001643 | 73 | 261 | 15.6 | 24.3 | 0.00 | 0.00 | 0.00 | 19 | 1002.7 |
| 20260504001634 | 73 | 261 | 16.5 | 24.3 | 0.00 | 0.00 | 0.00 | 20 | 1002.9 |
| 20260504000623 | 73 | 261 | 17.4 | 23.5 | 0.00 | 0.00 | 0.00 | 21 | 1002.9 |
| 20260504000113 | 73 | 261 | 16.5 | 25.2 | 0.00 | 0.00 | 0.00 | 21 | 1003.0 |
| 20260503235604 | 73 | 261 | 14.8 | 25.2 | 0.00 | 0.00 | 0.00 | 22 | 1003.0 |
| 20260503235049 | 73 | 261 | 14.8 | 21.7 | 0.00 | 0.00 | 0.00 | 20 | 1003.1 |
| 20260503234539 | 74 | 261 | 16.5 | 25.2 | 0.00 | 0.00 | 0.00 | 20 | 1003.3 |
| 20260503234029 | 74 | 261 | 17.4 | 25.2 | 0.00 | 0.00 | 0.00 | 21 | 1003.3 |
| 20260503234021 | 73 | 261 | 15.6 | 23.5 | 0.00 | 0.00 | 0.00 | 22 | 1003.1 |
| 20260503233010 | 73 | 261 | 16.5 | 23.5 | 0.00 | 0.00 | 0.00 | 21 | 1003.3 |
| 20260503232511 | 73 | 261 | 16.5 | 25.2 | 0.00 | 0.00 | 0.00 | 21 | 1003.4 |
| 20260503232002 | 73 | 261 | 16.5 | 25.2 | 0.00 | 0.00 | 0.00 | 20 | 1003.4 |
| 20260503231452 | 73 | 261 | 16.5 | 20.9 | 0.00 | 0.00 | 0.00 | 21 | 1003.4 |
| 20260503230942 | 73 | 261 | 16.5 | 26.9 | 0.00 | 0.00 | 0.00 | 24 | 1003.4 |
| 20260503230936 | 74 | 261 | 17.4 | 26.9 | 0.00 | 0.00 | 0.00 | 23 | 1003.5 |
| 20260503225938 | 74 | 261 | 17.4 | 24.3 | 0.00 | 0.00 | 0.00 | 22 | 1003.5 |
| 20260503225929 | 75 | 261 | 18.2 | 25.2 | 0.00 | 0.00 | 0.00 | 24 | 1003.4 |
| 20260503224919 | 75 | 261 | 17.4 | 25.2 | 0.00 | 0.00 | 0.00 | 25 | 1003.7 |
| 20260503224414 | 74 | 261 | 17.4 | 22.6 | 0.00 | 0.00 | 0.00 | 27 | 1003.7 |
| 20260503224408 | 73 | 261 | 16.5 | 23.5 | 0.00 | 0.00 | 0.00 | 27 | 1003.8 |
| 20260503223359 | 74 | 261 | 16.5 | 23.5 | 0.00 | 0.00 | 0.00 | 26 | 1003.9 |
| 20260503223353 | 74 | 261 | 16.5 | 26.9 | 0.00 | 0.00 | 0.00 | 25 | 1004.0 |
| 20260503222345 | 73 | 261 | 15.6 | 26.9 | 0.00 | 0.00 | 0.00 | 27 | 1004.1 |
| 20260503221838 | 73 | 261 | 14.8 | 24.3 | 0.00 | 0.00 | 0.00 | 28 | 1004.1 |
| 20260503221833 | 73 | 261 | 15.6 | 24.3 | 0.00 | 0.00 | 0.00 | 27 | 1004.2 |
| 20260503220831 | 73 | 261 | 15.6 | 24.3 | 0.00 | 0.00 | 0.00 | 27 | 1004.3 |
| 20260503220323 | 73 | 261 | 16.5 | 24.3 | 0.00 | 0.00 | 0.00 | 27 | 1004.2 |
| 20260503215818 | 73 | 261 | 17.4 | 24.3 | 0.00 | 0.00 | 0.00 | 27 | 1004.4 |
| 20260503215311 | 73 | 261 | 14.8 | 23.5 | 0.00 | 0.00 | 0.00 | 28 | 1004.4 |
| 20260503214804 | 73 | 261 | 13.9 | 25.2 | 0.00 | 0.00 | 0.00 | 28 | 1004.5 |
| 20260503214300 | 74 | 261 | 14.8 | 25.2 | 0.00 | 0.00 | 0.00 | 27 | 1004.9 |
| 20260503213758 | 74 | 261 | 14.8 | 21.7 | 0.00 | 0.00 | 0.00 | 28 | 1005.0 |
| 20260503213251 | 74 | 261 | 16.5 | 22.6 | 0.00 | 0.00 | 0.00 | 28 | 1005.1 |
| 20260503212743 | 74 | 261 | 15.6 | 22.6 | 0.00 | 0.00 | 0.00 | 27 | 1005.2 |
| 20260503212236 | 73 | 261 | 15.6 | 24.3 | 0.00 | 0.00 | 0.00 | 29 | 1005.3 |
| 20260503211729 | 73 | 261 | 15.6 | 24.3 | 0.00 | 0.00 | 0.00 | 27 | 1005.4 |
| 20260503211224 | 72 | 261 | 13.9 | 24.3 | 0.00 | 0.00 | 0.00 | 29 | 1005.4 |
| 20260503210718 | 73 | 261 | 14.8 | 24.3 | 0.00 | 0.00 | 0.00 | 27 | 1005.7 |
| 20260503210204 | 73 | 261 | 15.6 | 23.5 | 0.00 | 0.00 | 0.00 | 28 | 1005.7 |
| 20260503205702 | 73 | 261 | 16.5 | 25.2 | 0.00 | 0.00 | 0.00 | 28 | 1005.9 |
| 20260503205158 | 73 | 261 | 15.6 | 25.2 | 0.00 | 0.00 | 0.00 | 27 | 1005.9 |
| 20260503204646 | 74 | 261 | 13.9 | 21.7 | 0.00 | 0.00 | 0.00 | 26 | 1006.2 |
| 20260503204141 | 73 | 261 | 13.9 | 20.9 | 0.00 | 0.00 | 0.00 | 27 | 1006.3 |
| 20260503203640 | 73 | 261 | 14.8 | 24.3 | 0.00 | 0.00 | 0.00 | 26 | 1006.4 |
| 20260503203136 | 73 | 261 | 16.5 | 24.3 | 0.00 | 0.00 | 0.00 | 26 | 1006.6 |
| 20260503203131 | 73 | 261 | 17.4 | 26.9 | 0.00 | 0.00 | 0.00 | 27 | 1006.7 |
| 20260503202124 | 73 | 261 | 17.4 | 26.9 | 0.00 | 0.00 | 0.00 | 26 | 1006.8 |
| 20260503201624 | 73 | 261 | 15.6 | 25.2 | 0.00 | 0.00 | 0.00 | 27 | 1006.8 |
| 20260503201109 | 73 | 261 | 13.0 | 20.9 | 0.00 | 0.00 | 0.00 | 27 | 1007.0 |
| 20260503200548 | 73 | 261 | 14.8 | 21.7 | 0.00 | 0.00 | 0.00 | 28 | 1007.0 |
| 20260503200042 | 73 | 261 | 15.6 | 23.5 | 0.00 | 0.00 | 0.00 | 27 | 1007.2 |
| 20260503195533 | 72 | 261 | 14.8 | 22.6 | 0.00 | 0.00 | 0.00 | 26 | 1007.3 |
| 20260503195018 | 72 | 261 | 15.6 | 25.2 | 0.00 | 0.00 | 0.00 | 27 | 1007.3 |
| 20260503194513 | 72 | 261 | 16.5 | 25.2 | 0.00 | 0.00 | 0.00 | 26 | 1007.7 |
| 20260503194010 | 71 | 261 | 14.8 | 22.6 | 0.00 | 0.00 | 0.00 | 27 | 1007.7 |
| 20260503193509 | 72 | 261 | 14.8 | 21.7 | 0.00 | 0.00 | 0.00 | 27 | 1007.7 |
| 20260503193504 | 72 | 261 | 14.8 | 23.5 | 0.00 | 0.00 | 0.00 | 27 | 1007.8 |
| 20260503192455 | 72 | 261 | 13.9 | 23.5 | 0.00 | 0.00 | 0.00 | 27 | 1007.9 |
| 20260503191950 | 72 | 261 | 13.0 | 23.5 | 0.00 | 0.00 | 0.00 | 29 | 1007.9 |
| 20260503191442 | 71 | 261 | 13.0 | 23.5 | 0.00 | 0.00 | 0.00 | 29 | 1008.1 |
| 20260503191426 | 71 | 261 | 13.9 | 21.7 | 0.00 | 0.00 | 0.00 | 29 | 1008.2 |
| 20260503190418 | 71 | 261 | 15.6 | 22.6 | 0.00 | 0.00 | 0.00 | 29 | 1008.2 |
| 20260503185912 | 70 | 261 | 14.8 | 22.6 | 0.00 | 0.00 | 0.00 | 29 | 1008.4 |
| 20260503185406 | 70 | 261 | 13.9 | 21.7 | 0.00 | 0.00 | 0.00 | 28 | 1008.4 |
| 20260503184850 | 70 | 261 | 13.9 | 22.6 | 0.00 | 0.00 | 0.00 | 30 | 1008.5 |
| 20260503184343 | 70 | 261 | 14.8 | 22.6 | 0.00 | 0.00 | 0.00 | 29 | 1008.7 |
| 20260503183834 | 70 | 261 | 14.8 | 20.9 | 0.00 | 0.00 | 0.00 | 29 | 1009.0 |
| 20260503183323 | 69 | 261 | 12.2 | 20.9 | 0.00 | 0.00 | 0.00 | 29 | 1009.1 |
| 20260503182813 | 69 | 261 | 12.2 | 23.5 | 0.00 | 0.00 | 0.00 | 29 | 1009.3 |
| 20260503182304 | 69 | 261 | 13.0 | 23.5 | 0.00 | 0.00 | 0.00 | 29 | 1009.4 |
| 20260503181753 | 69 | 261 | 14.8 | 24.3 | 0.00 | 0.00 | 0.00 | 30 | 1009.4 |
| 20260503181243 | 69 | 261 | 14.8 | 26.1 | 0.00 | 0.00 | 0.00 | 30 | 1009.7 |
| 20260503180733 | 69 | 261 | 11.3 | 26.1 | 0.00 | 0.00 | 0.00 | 29 | 1009.7 |
| 20260503180230 | 69 | 261 | 11.3 | 19.1 | 0.00 | 0.00 | 0.00 | 28 | 1009.8 |
| 20260503175722 | 69 | 261 | 12.2 | 24.3 | 0.00 | 0.00 | 0.00 | 29 | 1009.9 |
| 20260503175219 | 69 | 261 | 12.2 | 24.3 | 0.00 | 0.00 | 0.00 | 29 | 1010.1 |
| 20260503174720 | 69 | 261 | 10.4 | 20.0 | 0.00 | 0.00 | 0.00 | 31 | 1010.3 |
| 20260503174211 | 68 | 261 | 11.3 | 20.0 | 0.00 | 0.00 | 0.00 | 29 | 1010.3 |
| 20260503174201 | 68 | 261 | 10.4 | 20.0 | 0.00 | 0.00 | 0.00 | 29 | 1010.5 |
| 20260503173144 | 68 | 261 | 9.6 | 19.1 | 0.00 | 0.00 | 0.00 | 29 | 1010.6 |
| 20260503172632 | 68 | 261 | 9.6 | 17.4 | 0.00 | 0.00 | 0.00 | 31 | 1010.6 |
| 20260503172124 | 68 | 261 | 12.2 | 17.4 | 0.00 | 0.00 | 0.00 | 28 | 1010.8 |
| 20260503171612 | 68 | 261 | 10.4 | 19.1 | 0.00 | 0.00 | 0.00 | 29 | 1010.8 |
| 20260503171103 | 67 | 261 | 10.4 | 20.9 | 0.00 | 0.00 | 0.00 | 31 | 1010.8 |
| 20260503170553 | 67 | 261 | 12.2 | 20.9 | 0.00 | 0.00 | 0.00 | 30 | 1011.0 |
| 20260503150659 | 60 | 261 | 8.7 | 12.2 | 0.00 | 0.00 | 0.00 | 42 | 1012.6 |
| 20260503150148 | 60 | 261 | 8.7 | 12.2 | 0.00 | 0.00 | 0.00 | 41 | 1012.6 |
| 20260503131315 | 42 | 0 | 0.9 | 3.5 | 0.00 | 0.00 | 0.00 | 69 | 1013.4 |
| 20260503130802 | 41 | 0 | 0.9 | 1.7 | 0.00 | 0.00 | 0.00 | 68 | 1013.4 |
| 20260503130253 | 40 | 0 | 0.0 | 1.7 | 0.00 | 0.00 | 0.00 | 72 | 1013.5 |
| 20260503110400 | 34 | 0 | 0.0 | 0.0 | 0.00 | 0.00 | 0.00 | 75 | 1013.7 |
| 20260503100221 | 34 | 0 | 0.0 | 0.0 | 0.00 | 0.00 | 0.00 | 74 | 1014.1 |
| 20260503090111 | 36 | 0 | 0.0 | 0.9 | 0.00 | 0.00 | 0.00 | 71 | 1014.2 |
| 20260503081534 | 38 | 0 | 0.0 | 0.0 | 0.00 | 0.00 | 0.00 | 66 | 1014.3 |
| 20260503081030 | 38 | 0 | 0.0 | 0.0 | 0.00 | 0.00 | 0.00 | 66 | 1014.3 |
| 20260503080528 | 38 | 0 | 0.0 | 0.0 | 0.00 | 0.00 | 0.00 | 66 | 1014.3 |
| 20260503080522 | 38 | 0 | 0.0 | 0.0 | 0.00 | 0.00 | 0.00 | 66 | 1014.3 |
| 20260503072500 | 40 | 0 | 0.0 | 0.9 | 0.00 | 0.00 | 0.00 | 63 | 1014.5 |
| 20260503071950 | 40 | 0 | 0.0 | 1.7 | 0.00 | 0.00 | 0.00 | 63 | 1014.5 |
| 20260503071441 | 40 | 0 | 0.0 | 1.7 | 0.00 | 0.00 | 0.00 | 62 | 1014.6 |
| 20260503070933 | 41 | 0 | 0.0 | 0.9 | 0.00 | 0.00 | 0.00 | 61 | 1014.5 |
| 20260503070431 | 41 | 0 | 0.0 | 0.9 | 0.00 | 0.00 | 0.00 | 60 | 1014.5 |